DECAYED
Showing default

HAWK-4A, 52167 (Decayed)

Orbit data source: Space-Track

HAWK-4A, 52167 was a payload satellite owned by HawkEye 360 (US) in LEO that was launched on Fri, 01 Apr 2022 UTC via an FALCON 9 launch vehicle from the Air Force Eastern Test Range (AFETR). Payload-class satellites include a variety of spacecraft equipped with specific instruments for various scientific and technological missions. These include communications satellites like Starlink; space stations such as the ISS; scientific satellites like the Hubble; Earth observation satellites from companies like Planet Labs, Umbra, and HawkEye 360; GPS; miniature CubeSats for education and research; and military/defense satellites.

Not visible in the next 10 days
Identifier
52167, 2022-033L
Orbit
Decayed
Country
Flag of USUS
Related business
Manufacturer
UTIAS-SFL
Mission
Decayed Commercial Sigint
Bus & Motor
DEFIANT, Unknown motor
Mass
31 kg wet, 30 kg dry
Launch date (UTC)
2022-04-01 (4 years ago)
Launch vehicle
FALCON 9
Launch site
Air Force Eastern Test Range (AFETR)
Object type
Payload
Rocket body
Debris
Shape & HBR
Box + 2 Pan, 1.0 m
Radar Cross Section
0.348 m², Medium (>0.1 m² and < 1m²)

Expand to show TLE details & history
Last TLE update: 1 month ago

TLE from 1 month ago
0 HAWK-4A
1 52167U 22033L   25242.42283878  .11656038  25014-5  24802-3 0  9994
2 52167  97.2661 344.5376 0012785 263.3721  96.6127 16.45852392191886
Epoch: 2025-08-30T10:08Z
TLE epoch observation values (Epoch: 2025-08-30T10:08:53.270Z)
Latitude
-0.00001°
Longitude
-146.54171°
Altitude
154.515 km
Speed
7.813 km/s
True Right ascension
22h 58m 09s
True Declination
0° 00' 00"
Sunlit
Object was in full shadow at epoch
Visualization orbit readout
Latitude
Unknown
Longitude
Unknown
Altitude
Unknown
Speed
Unknown
Apparent Right ascension
Unknown
Apparent Declination
Unknown
Sunlit
N/A
Visualization observer readout
Local Sidereal Time
08:11:57
Azimuth
Unknown
Elevation
Unknown
Doppler factor
Unknown
Orbital elements
Apogee altitude
155.417 km
Perigee altitude
138.732 km
Semi-major axis
6,525.211 km
Eccentricity
0.00128
Inclination
97.2661°
RAAN
344.5376°
Arg. of periapsis
263.3721°
True anomaly
96.7582°
Mean anomaly
96.6127°
Eccentric anomaly
96.68545°
Mean motion
4.11767 °/min
Orbital period
87.43 mins
BSTAR
0.00024802
Loading maneuver chart data...
Computing Atmospheric mass density...
Loading historical data...
Loading historical data...
Loading historical data...
Loading historical data...
Loading historical data...
Loading historical data...
Loading historical data...

Documentation

Showing up to 5 results
|